Meath Environmental Platform

Observations for Trim Patrick St

Time AQI Temp °C Hum % Pres Pa CO μg/m³ H₂S μg/m³ NO μg/m³ NO₂ μg/m³ O₃ μg/m³ SO₂ μg/m³ PM1 μg/m³ PM2.5 μg/m³ PM10 μg/m³
Thursday 27 August 2026
08:31 2 18.6 84 38,460 0.18 0 1.2 21.39 31.37 0 24.29 34.07 36.92
08:30 2 18.6 82 38,460 0.17 0 0.97 20.23 46.78 0 25.14 36.32 40.04
08:29 2 18.6 84 38,460 0.17 0 0.92 13.35 38.8 0 22.57 32.62 33.45
08:28 2 18.6 84 38,460 0.17 0 1.11 13.05 36.72 0 25.14 34.68 36.07
08:27 2 18.5 84 38,460 0.15 0 1.61 19.28 31.16 0 24.29 33.29 35.37
08:26 2 18.5 84 38,460 0.17 1.12 1.16 21.19 28.98 0 23.43 33.99 36.07
08:25 2 18.4 84 38,460 0.17 1.62 1.62 38.68 33.05 0 25.14 35.39 38.76
08:24 2 18.4 84 38,460 0.16 0.34 1.21 18.77 36.03 0 22.57 31.86 33.28
08:23 2 18.4 85 38,460 0.16 0 1.21 22.47 27.9 0 21.72 30.46 32.58
08:22 2 18.3 85 38,460 0.16 0 1.06 13.41 40.08 0 25.14 34.61 35.88
08:21 2 18.3 85 38,460 0.17 0.63 1.27 20.47 38.79 0 25.14 35.28 37.16
08:20 2 18.3 85 38,460 0.15 0.37 1.03 20.47 31.31 0 25.14 34.59 37.16
08:19 2 18.2 85 38,460 0.16 1.42 1.35 22.83 27.66 0 25.14 34.59 35.18
08:18 2 18.2 84 38,460 0.15 1.1 1.2 29.83 31.48 0 26 36.73 41.28
08:17 2 18.2 84 38,460 0.18 0.71 1.59 30.15 29.98 0 24.29 35.34 37.97
08:16 2 18.2 85 38,460 0.15 0 1.63 13.28 32.8 0 23.43 33.18 34.45
08:15 2 18.2 85 38,460 0.16 0 3.29 17.45 26.74 0 21.72 32.49 34.45
08:14 2 18.1 85 38,460 0.17 0.53 2.68 26.27 28.74 0 22.57 34.56 35.11
08:13 2 18.1 85 38,460 0.17 0.22 2.45 28.55 24.07 0 24.29 33.9 35.84
08:12 2 18.1 84 38,460 0.2 0.98 1.85 37.31 23.44 0 26 36.69 39.21